Flag for U.S.A. Weather past 2 weeks in New City, New York, U.S.A.

Now
33 °F

Mostly cloudy.


Feels Like: 27 °F
Forecast: 30 / 37 °F
Wind: 7 mph from Northwest

Location: Westchester County Airport

Current Time: Dec 21, 2014 at 5:17:34 PM

Latest Report: Dec 21, 2014 at 3:56 PM


Visibility: 9 mi

Pressure: 30.29 "Hg

Humidity: 85%

Dew point: 29 °F

Location of New CityLocation

Historic Weather in New City — Graph

°F

New City temperature yesterday

Maximum temperature yesterday: 31 °F (at 11:56 AM)
Minimum temperature yesterday: 27 °F (at 12:56 AM)
Average temperature yesterday: 29 °F

Past Weeks' High & Low Weather Summary

 TemperatureHumidityPressure
High50 °F (Dec 17, 11:56 AM)97% (Dec 6, 2:56 PM)30.71 "Hg (Dec 6, 2:56 PM)
Low20 °F (Dec 8, 5:56 AM)23% (Dec 7, 10:56 PM)29.54 "Hg (Dec 10, 2:56 PM)
Average35 °F72%30.02 "Hg
* Reported Dec 6 2:56 PM — Dec 21 2:56 PM, New City, Weather by CustomWeather, © 2014

Note: Actual official high and low records may vary slightly from our data, if they occured in-between our weather recording intervals... More about our weather records

Advertising

New City weather history for previous 24 hours

 ConditionsComfort  
Time TempWeatherWind HumidityBarometerVisibility
2:56 PM
Dec 21
34 °FMostly cloudy.7 mph82%30.28 "Hg9 mi
1:56 PM33 °FLight snow. Fog.8 mph88%30.28 "Hg3 mi
12:56 PM32 °FLight snow. Low clouds.9 mph88%30.28 "Hg1 mi
11:56 AM32 °FOvercast.8 mph82%30.29 "Hg6 mi
10:56 AM31 °FOvercast.8 mph82%30.31 "Hg6 mi
9:56 AM31 °FLight snow. Overcast.6 mph79%30.32 "Hg4 mi
8:56 AM30 °FOvercast.7 mph82%30.30 "Hg8 mi
7:56 AM30 °FOvercast.6 mph79%30.29 "Hg8 mi
6:56 AM30 °FOvercast.8 mph79%30.29 "Hg9 mi
5:56 AM29 °FPassing clouds.7 mph82%30.28 "Hg10 mi
4:56 AM29 °FOvercast.7 mph82%30.27 "Hg10 mi
3:56 AM29 °FPartly cloudy.6 mph82%30.28 "Hg10 mi
2:56 AM29 °FOvercast.5 mph82%30.27 "Hg10 mi
1:56 AM29 °FMostly cloudy.6 mph82%30.27 "Hg10 mi
12:56 AM30 °FOvercast.6 mph79%30.28 "Hg10 mi
11:56 PM
Dec 20
30 °FOvercast.5 mph79%30.27 "Hg10 mi
10:56 PM30 °FOvercast.3 mph72%30.28 "Hg10 mi
9:56 PM30 °FOvercast.3 mph69%30.29 "Hg10 mi
8:56 PM30 °FOvercast.6 mph69%30.29 "Hg10 mi
7:56 PM30 °FOvercast.5 mph66%30.29 "Hg10 mi
6:56 PM30 °FOvercast.7 mph66%30.29 "Hg10 mi
5:56 PM30 °FOvercast.3 mph66%30.29 "Hg10 mi
Weather by CustomWeather, © 2014

See weather overviewHow to use our weather pages